Showing default

YAM-2, 48911

Orbit data source: Space-Track

YAM-2, 48911 is a payload satellite owned by Loft Orbital (US) in LEO that was launched on Wed, 30 Jun 2021 UTC via an FALCON 9 launch vehicle from the Air Force Eastern Test Range (AFETR). Payload-class satellites include a variety of spacecraft equipped with specific instruments for various scientific and technological missions. These include communications satellites like Starlink; space stations such as the ISS; scientific satellites like the Hubble; Earth observation satellites from companies like Planet Labs, Umbra, and HawkEye 360; GPS; miniature CubeSats for education and research; and military/defense satellites.

Not visible in the next 10 days
Identifier
48911, 2021-059AJ
Orbit
LEO
Country
Flag of USUS
Related business
Manufacturer
Blue Canyon
Mission
Decayed Commercial Technology
Bus & Motor
YAM, Unknown motor
Mass
~80 kg wet, ~80 kg dry
Launch date (UTC)
2021-06-30 (4 years ago)
Launch vehicle
FALCON 9
Launch site
Air Force Eastern Test Range (AFETR)
Object type
Payload
Rocket body
Debris
Shape & HBR
Box + 2 Pan, 0.5 m
Radar Cross Section
0.446 m², Medium (>0.1 m² and < 1m²)

Expand to show TLE details & history
Last TLE update: 3 weeks ago

TLE from 3 weeks ago
0 YAM-2
1 48911U 21059AJ  25240.11065436  .14474327  28079-5  12397-3 0  9997
2 48911  97.6485  66.0579 0010096 252.5522 107.4679 16.51794070233075
Epoch: 2025-08-28T02:39Z
TLE epoch observation values (Epoch: 2025-08-28T02:39:20.536Z)
Latitude
-0.00009°
Longitude
49.64399°
Altitude
139.855 km
Speed
7.821 km/s
True Right ascension
04h 24m 13s
True Declination
0° 00' 00"
Sunlit
Object was in daylight at epoch
Visualization orbit readout
Latitude
Unknown
Longitude
Unknown
Altitude
Unknown
Speed
Unknown
Apparent Right ascension
Unknown
Apparent Declination
Unknown
Sunlit
N/A
Visualization observer readout
Local Sidereal Time
19:19:20
Azimuth
Unknown
Elevation
Unknown
Doppler factor
Unknown
Orbital elements
Apogee altitude
137.991 km
Perigee altitude
124.847 km
Semi-major axis
6,509.556 km
Eccentricity
0.00101
Inclination
97.6485°
RAAN
66.0579°
Arg. of periapsis
252.5522°
True anomaly
107.57821°
Mean anomaly
107.4679°
Eccentric anomaly
107.52306°
Mean motion
4.13253 °/min
Orbital period
87.11 mins
BSTAR
0.00012397
Loading maneuver chart data...
Computing Atmospheric mass density...
Loading historical data...
Loading historical data...
Loading historical data...
Loading historical data...
Loading historical data...
Loading historical data...
Loading historical data...

Documentation

Showing up to 5 results
|